Weather in Kandabulak

Russia / Samara Oblast     53°58′16″N   50°44′02″E
temp.,
°C
wind,
m/s
gust,
m/s
humid.,
%
clouds,
%
prec.,
mm/h
press.,
hPa
HPBL,
m
1 march, mon
mon101:00−19nw339997 0.0 101566
04:00−21nnw3410097 0.1 101757
07:00−22nw3310093 0.0 101933
10:00−20nnw369884 0.0 1021201
13:00−17nw349471 0.0 1021250
16:00−15nw359478 0.0 1022365
19:00−19w2210091 0.0 102120
22:00−20sw2310069 0.0 102120
2 march, tue
tue201:00−18ssw469861 0.0 1018113
04:00−15ssw4109780 0.0 1015251
07:00−12ssw61295100 0.3 1011380
10:00−8sw71294100 1.1 1008493
13:00−3sw81395100 0.8 1005645
16:000sw81397100 2.2 1002707
19:000wsw71298100 1.9 1000625
22:000w61095100 2.3 1000574
3 march, wed
wed301:00−6w479678 0.1 1000139
04:00−9w349747 0.1 100258
07:00−9w359772 0.0 1002101
10:00−7wnw369679 0.1 1003243
13:00−4w479497 0.1 1003392
16:00−3wnw589295 0.2 1004676
19:00−7nw4994100 0.1 1005340
22:00−8wnw5129599 0.3 1007371
4 march, thu
thu401:00−11wnw369790 0.1 1007121
04:00−13w479793 0.1 1008104
07:00−12wsw499677 0.1 1008187
10:00−9wsw599588 0.3 1007324
13:00−5sw61193100 0.1 1006592
16:00−3sw81392100 0.3 1004970
19:00−3sw91795100 0.7 1001837
22:00−1sw101794100 2.1 1000952
5 march, fri
fri501:00−1sw101791100 0.4 9971021
04:00−1wsw111791100 0.6 996976
07:00−1wsw101794100 0.5 999949
10:00−5wnw7138482 0.9 1003596
13:00−6wnw59870 0.0 1007504
16:00−7w47900 0.0 1010388
19:00−11wnw33930 0.0 101221
22:00−13wnw229310 0.0 101421